Date,TemperatureHighF,TemperatureAvgF,TemperatureLowF,DewpointHighF,DewpointAvgF,DewpointLowF,HumidityHigh,HumidityAvg,HumidityLow,PressureMaxIn,PressureMinIn,WindSpeedMaxMPH,WindSpeedAvgMPH,GustSpeedMaxMPH,PrecipitationSumIn
2013-10-1,70.2,57.3,41.7,43.0,37.6,28.0,89,52,28,25.32,25.14,13,4,21,0.00
2013-10-2,69.6,55.2,41.6,46.0,40.2,36.0,94,61,32,25.24,25.17,17,5,20,0.00
2013-10-3,55.4,48.1,42.8,46.0,41.5,37.0,97,79,62,25.17,25.06,12,5,15,0.01
2013-10-4,43.5,32.6,29.3,43.0,30.1,-99.9,98,93,86,25.35,25.07,39,3,44,0.05
2013-10-5,45.7,37.6,30.0,30.0,26.9,24.0,85,67,44,25.37,25.30,30,17,46,0.00
2013-10-6,62.4,49.9,38.4,39.0,34.3,30.0,75,57,39,25.43,25.35,21,8,28,0.00
2013-10-7,77.4,56.6,38.7,40.0,32.8,23.0,83,49,14,25.39,25.16,10,5,18,0.00
2013-10-8,83.4,56.9,45.6,38.0,30.5,-99.9,72,45,11,25.15,25.02,10,-29,12,0.00
2013-10-9,61.7,51.2,43.4,45.0,40.5,36.0,82,68,51,25.22,25.07,14,6,20,0.00
2013-10-10,60.9,47.6,38.0,47.0,41.8,35.0,93,81,57,25.20,24.68,39,4,47,0.38
2013-10-11,53.2,35.8,40.7,42.0,8.6,-99.9,95,62,58,25.29,24.68,34,-208,50,0.61
2013-10-12,58.0,45.2,35.4,44.0,37.4,31.0,94,75,53,25.40,25.30,15,4,22,0.00
2013-10-13,64.0,50.4,37.2,50.0,39.7,-99.9,89,70,49,25.40,25.17,24,-2,32,0.00
2013-10-14,55.6,43.0,34.4,52.0,38.9,29.0,95,85,79,25.37,25.06,28,12,42,0.03
2013-10-15,40.4,34.6,28.2,29.0,27.3,25.0,87,75,61,25.45,25.37,28,12,39,0.00
2013-10-16,54.0,38.4,24.3,31.0,25.2,20.0,90,64,27,25.39,25.21,11,4,17,0.00
2013-10-17,42.1,35.6,31.7,33.0,27.5,-99.9,96,77,62,25.34,25.25,14,-16,18,0.00
2013-10-18,43.2,33.3,26.8,31.0,26.2,-99.9,96,79,51,25.37,25.30,18,-6,26,0.08
2013-10-19,59.6,45.1,29.5,33.0,26.9,-99.9,83,54,27,25.29,25.13,19,-3,23,0.00
2013-10-20,50.9,42.3,39.0,36.0,30.0,-99.9,84,67,48,25.31,25.13,20,-18,25,0.00
2013-10-21,56.4,46.1,32.3,36.0,30.5,-99.9,88,59,38,25.33,0.00,17,-6,25,0.00
2013-10-22,63.4,51.4,39.9,36.0,33.0,-99.9,80,53,34,25.37,25.31,19,-5,23,0.00
2013-10-23,63.1,47.7,35.5,37.0,30.5,-99.9,89,58,30,25.45,25.30,16,-16,19,0.00
2013-10-24,56.2,42.3,28.0,39.0,34.7,26.0,94,76,51,25.50,25.42,10,3,14,0.00
2013-10-25,69.4,47.6,29.4,40.0,31.2,-99.9,94,62,23,25.43,25.30,16,-6,17,0.00
2013-10-26,66.3,49.4,36.2,37.0,29.6,-99.9,85,54,26,25.52,25.36,11,-20,15,0.00
2013-10-27,71.1,57.2,37.1,33.0,26.6,-99.9,73,35,17,25.24,0.00,14,-9,22,0.00
2013-10-28,56.4,31.9,29.2,34.0,28.0,-99.9,96,89,35,25.34,25.14,15,-5,17,0.00
2013-10-29,39.8,33.5,29.9,34.0,31.7,29.0,97,93,77,25.28,25.15,9,2,15,0.02
2013-10-30,52.7,40.7,32.4,37.0,30.6,25.0,97,71,35,25.18,25.03,19,6,24,0.02
2013-10-31,52.1,43.9,35.9,37.0,27.3,23.0,88,54,35,25.12,25.01,29,13,40,0.02